FW1577 Weather Reports


Display with metric or nautical units.
time (UTC)temp
F
wind
direction
speed
MPH
gust
MPH
rain 1hr
in
rain 24hr
in
rain mn
in
humidity
%
barometer
mb
20260904164547 54 84 2.0 5.0 0.05 0.17 0.14 94 977.9
20260904163046 54 177 1.0 7.0 0.05 0.16 0.13 95 978.5
20260904161545 54 108 2.0 4.0 0.05 0.15 0.12 95 978.8
20260904160042 54 79 2.0 8.0 0.06 0.15 0.12 94 979.0
20260904154539 54 114 3.0 9.0 0.03 0.13 0.09 94 979.4
20260904153048 54 120 1.0 3.0 0.02 0.11 0.08 95 979.7
20260904151537 54 229 0.0 3.0 0.04 0.10 0.07 93 979.8
20260904150039 54 94 2.0 8.0 0.06 0.09 0.06 94 979.8
20260904144533 54 143 1.0 4.0 0.07 0.09 0.06 94 980.1
20260904143030 54 115 2.0 5.0 0.09 0.09 0.06 94 980.3
20260904141528 54 104 0.0 3.0 0.06 0.06 0.03 93 980.7
20260904140025 54 105 0.0 6.0 0.03 0.03 0.00 91 981.0
20260904134625 55 106 4.0 10.0 0.02 0.02 0.02 90 981.2
20260904133024 56 110 2.0 12.0 0.00 0.00 0.00 87 981.0
20260904131524 56 103 3.0 10.0 0.00 0.00 0.00 86 981.3
20260904130038 57 151 2.0 7.0 0.00 0.00 0.00 84 981.3
20260904124522 57 92 2.0 10.0 0.00 0.00 0.00 84 981.3
20260904123024 57 107 5.0 10.0 0.00 0.00 0.00 83 981.6
20260904121519 57 358 2.0 11.0 0.00 0.00 0.00 82 981.5
20260904120024 57 131 1.0 12.0 0.00 0.00 0.00 82 981.3
20260904114520 57 356 3.0 13.0 0.00 0.00 0.00 82 981.8
20260904113018 57 74 4.0 11.0 0.00 0.00 0.00 82 981.7
20260904111513 56 65 4.0 9.0 0.00 0.00 0.00 81 981.7
20260904110012 56 117 1.0 5.0 0.00 0.00 0.00 81 982.1
20260904104520 56 111 2.0 8.0 0.00 0.00 0.00 80 982.2
20260904103007 55 138 0.0 5.0 0.00 0.00 0.00 81 982.4
20260904101506 55 113 0.0 1.0 0.00 0.00 0.00 82 982.5
20260904100005 55 108 2.0 4.0 0.00 0.00 0.00 82 982.4
20260904094504 55 271 0.0 2.0 0.00 0.00 0.00 82 982.7
20260904093004 55 94 1.0 6.0 0.00 0.00 0.00 81 982.5
20260904091504 55 103 2.0 8.0 0.00 0.00 0.00 81 982.6
20260904090002 54 211 0.0 3.0 0.00 0.00 0.00 82 982.7
20260904084502 54 100 1.0 5.0 0.00 0.00 0.00 82 982.8
20260904083100 54 135 0.0 3.0 0.00 0.00 0.00 83 982.9
20260904081601 54 146 0.0 1.0 0.00 0.00 0.00 82 983.2
20260904080100 54 157 0.0 3.0 0.00 0.00 0.00 81 983.2
20260904074558 54 120 1.0 5.0 0.00 0.00 0.00 80 983.0
20260904073057 54 73 0.0 3.0 0.00 0.00 0.00 79 983.2
20260904071555 54 103 1.0 7.0 0.00 0.00 0.00 80 983.2
20260904070053 54 123 0.0 1.0 0.00 0.00 0.00 81 983.3
20260904064555 54 94 0.0 2.0 0.00 0.02 0.00 81 983.5
20260904063049 54 132 0.0 0.0 0.00 0.02 0.00 82 983.8
20260904061551 54 131 0.0 0.0 0.00 0.02 0.00 80 984.0
20260904060046 54 105 0.0 1.0 0.00 0.02 0.00 79 984.1
20260904054545 54 96 1.0 3.0 0.00 0.04 0.00 78 984.2
20260904053045 54 103 2.0 4.0 0.00 0.04 0.00 77 984.2
20260904051544 54 278 0.0 3.0 0.00 0.04 0.00 76 984.5
20260904050043 55 110 0.0 6.0 0.00 0.04 0.00 76 984.5
20260904044552 55 111 4.0 7.0 0.00 0.05 0.00 76 984.3
20260904043100 56 280 0.0 8.0 0.00 0.05 0.00 77 984.2
20260904041541 56 286 0.0 4.0 0.00 0.05 0.00 75 984.2
20260904040040 56 127 0.0 3.0 0.00 0.05 0.00 75 984.2
20260904034539 55 279 1.0 7.0 0.00 0.05 0.00 73 984.3
20260904033036 56 28 0.0 5.0 0.00 0.05 0.00 75 984.5
20260904031534 55 224 0.0 4.0 0.00 0.05 0.00 74 985.0
20260904030031 54 277 2.0 7.0 0.00 0.05 0.00 75 985.1
20260904024531 54 340 1.0 5.0 0.00 0.05 0.00 75 985.2
20260904023029 54 326 3.0 9.0 0.00 0.05 0.00 74 985.4
20260904021527 55 305 0.0 6.0 0.00 0.05 0.00 75 985.5
20260904020023 53 63 0.0 13.0 0.00 0.05 0.00 78 985.6
20260904014522 54 148 2.0 8.0 0.00 0.05 0.00 83 985.7
20260904013019 52 107 7.0 13.0 0.00 0.05 0.00 82 985.9
20260904011514 51 257 0.0 4.0 0.00 0.05 0.00 92 986.3
20260904010010 49 113 0.0 6.0 0.00 0.05 0.00 97 986.4
20260904004507 47 127 0.0 6.0 0.00 0.05 0.00 98 986.7
20260904003005 46 137 3.0 6.0 0.00 0.05 0.00 98 987.0
20260904001501 45 103 2.0 4.0 0.00 0.05 0.00 99 987.3
20260904000058 44 173 0.0 1.0 0.00 0.05 0.00 99 987.3
20260903234557 43 259 0.0 1.0 0.00 0.05 0.00 99 987.4
20260903233027 42 232 0.0 1.0 0.00 0.05 0.00 99 987.4
20260903231605 42 185 0.0 1.0 0.00 0.05 0.00 99 987.3
20260903230055 41 205 0.0 1.0 0.00 0.05 0.00 99 987.5
20260903224553 40 287 0.0 1.0 0.00 0.05 0.00 99 987.5
20260903223051 39 290 0.0 1.0 0.00 0.05 0.00 99 987.1
20260903221552 39 288 0.0 1.0 0.00 0.05 0.00 99 987.1
20260903220058 38 294 0.0 1.0 0.00 0.05 0.00 99 987.0
20260903214546 37 135 0.0 0.0 0.00 0.05 0.00 98 986.6
20260903213045 37 137 0.0 0.0 0.00 0.05 0.00 98 986.5
20260903211548 37 129 0.0 0.0 0.00 0.05 0.00 98 986.4
20260903210145 37 128 0.0 0.0 0.00 0.05 0.00 98 986.1
20260903204543 37 127 0.0 0.0 0.00 0.05 0.00 98 986.1
20260903203043 37 127 0.0 0.0 0.00 0.05 0.00 98 986.0
20260903201543 37 127 0.0 0.0 0.00 0.05 0.00 98 985.8
20260903200042 37 129 0.0 0.0 0.00 0.05 0.00 98 985.6
20260903194542 37 127 0.0 0.0 0.00 0.05 0.00 98 985.7
20260903193041 36 126 0.0 0.0 0.00 0.05 0.00 98 985.7
20260903191550 36 125 0.0 0.0 0.00 0.05 0.00 98 985.7
20260903190037 37 127 0.0 0.0 0.00 0.05 0.00 98 985.5
20260903184542 38 129 0.0 0.0 0.00 0.05 0.00 98 985.7
20260903183036 37 127 0.0 0.0 0.00 0.05 0.00 98 985.6
20260903181533 38 126 0.0 0.0 0.00 0.05 0.00 98 985.7
20260903180044 38 127 0.0 0.0 0.00 0.05 0.00 98 985.8
20260903174531 38 129 0.0 0.0 0.00 0.05 0.00 98 985.6
20260903173029 39 127 0.0 0.0 0.00 0.05 0.00 97 985.6
20260903171528 40 127 0.0 1.0 0.00 0.05 0.00 98 985.6
20260903170025 39 136 0.0 0.0 0.00 0.05 0.00 97 985.8